This demonstration page uses our WeatherBlox Daily Observations layout. Learn more.

Left ArrowRight Arrow

Hourly Observations for September 11, 2017

Temp ( °F °C ) Dew Point ( °F °C ) Humidity (%) Winds ( mph kmh ) Pressure ( in mb ) Visibility ( mi km ) Precip ( " mm )
12:10 am 00:10 Clear 46 8 45 7 93 93 N N/A 30.33 1027 10 16 N/A
12:30 am 00:30 Clear 46 8 43 6 87 87 N N/A 30.33 1027 10 16 N/A
12:50 am 00:50 Clear 48 9 45 7 87 87 NE 3 6 30.33 1027 10 16 N/A
1:10 am 01:10 Clear 48 9 45 7 87 87 ENE 3 6 30.33 1027 10 16 N/A
1:30 am 01:30 Clear 45 7 43 6 93 93 N N/A 30.30 1026 10 16 N/A
1:50 am 01:50 Clear 45 7 43 6 93 93 NE 3 6 30.30 1026 10 16 N/A
2:10 am 02:10 Clear 48 9 45 7 87 87 NNE 5 7 30.30 1026 10 16 N/A
2:30 am 02:30 Clear 45 7 43 6 93 93 NNE 3 6 30.30 1026 10 16 N/A
2:50 am 02:50 Clear 45 7 43 6 93 93 NNE 3 6 30.30 1026 10 16 N/A
3:10 am 03:10 Clear 43 6 41 5 93 93 NE 3 6 30.30 1026 10 16 N/A
3:30 am 03:30 Clear 43 6 43 6 100 100 NE 3 6 30.30 1026 10 16 N/A
3:50 am 03:50 Clear 43 6 41 5 93 93 NE 3 6 30.27 1025 10 16 N/A
4:10 am 04:10 Clear 41 5 41 5 100 100 N N/A 30.30 1026 10 16 N/A
4:30 am 04:30 Clear 41 5 41 5 100 100 N N/A 30.30 1026 10 16 N/A
4:50 am 04:50 Clear 41 5 41 5 100 100 NNE 3 6 30.30 1026 10 16 N/A
5:10 am 05:10 Clear 41 5 41 5 100 100 N N/A 30.30 1026 10 16 N/A
5:30 am 05:30 Clear 41 5 41 5 100 100 N 3 6 30.30 1026 10 16 N/A
5:50 am 05:50 Clear 41 5 41 5 100 100 N 3 6 30.30 1026 10 16 N/A
6:10 am 06:10 Clear 41 5 41 5 100 100 N 6 9 30.30 1026 10 16 N/A
6:30 am 06:30 Clear 43 6 41 5 93 93 N 3 6 30.27 1025 10 16 N/A
6:50 am 06:50 Clear 41 5 41 5 100 100 N N/A 30.30 1026 10 16 N/A
7:10 am 07:10 Clear 41 5 39 4 93 93 NNE 3 6 30.30 1026 10 16 N/A
7:30 am 07:30 Sunny 41 5 41 5 100 100 N N/A 30.30 1026 10 16 N/A
7:50 am 07:50 Sunny 43 6 41 5 93 93 N N/A 30.27 1025 10 16 N/A
8:10 am 08:10 Sunny 43 6 43 6 100 100 N 3 6 30.30 1026 10 16 N/A
8:30 am 08:30 Sunny 45 7 45 7 100 100 NNE 5 7 30.30 1026 10 16 N/A
8:50 am 08:50 Sunny 48 9 46 8 94 94 NNE 3 6 30.27 1025 10 16 N/A
9:10 am 09:10 Sunny 50 10 48 9 94 94 NNE 5 7 30.27 1025 10 16 N/A
9:30 am 09:30 Sunny 52 11 48 9 88 88 NNE 5 7 30.27 1025 10 16 N/A
9:50 am 09:50 Sunny 52 11 50 10 94 94 NE 5 7 30.27 1025 10 16 N/A
10:10 am 10:10 Sunny 54 12 50 10 88 88 NE 5 7 30.27 1025 10 16 N/A
10:30 am 10:30 Sunny 57 14 52 11 82 82 NE 8 13 30.24 1024 10 16 N/A
10:50 am 10:50 Sunny 59 15 52 11 77 77 NE 6 9 30.21 1023 10 16 N/A
11:10 am 11:10 Sunny 59 15 52 11 77 77 NE 6 9 30.21 1023 10 16 N/A
11:30 am 11:30 Sunny 61 16 52 11 72 72 NNE 6 9 30.21 1023 10 16 N/A
11:50 am 11:50 Sunny 63 17 52 11 68 68 NE 6 9 30.21 1023 10 16 N/A
12:10 pm 12:10 Sunny 64 18 54 12 68 68 NE 6 9 30.21 1023 10 16 N/A
12:30 pm 12:30 Sunny 66 19 54 12 64 64 NNE 8 13 30.21 1023 10 16 N/A
12:50 pm 12:50 Sunny 66 19 52 11 60 60 NE 9 15 30.21 1023 10 16 N/A
1:10 pm 13:10 Sunny 68 20 52 11 56 56 NNE 8 13 30.18 1022 10 16 N/A
1:30 pm 13:30 Sunny 70 21 52 11 53 53 NNE 6 9 30.18 1022 10 16 N/A
1:50 pm 13:50 Sunny 70 21 52 11 53 53 NE 8 13 30.18 1022 10 16 N/A
2:10 pm 14:10 Sunny 70 21 52 11 53 53 NNE 12 19 30.18 1022 10 16 N/A
2:30 pm 14:30 Sunny 72 22 52 11 50 50 E 7 11 30.18 1022 10 16 N/A
2:50 pm 14:50 Sunny 70 21 52 11 53 53 NE 9 15 30.18 1022 10 16 N/A
3:11 pm 15:11 Sunny 72 22 52 11 50 50 NNE 10 17 30.18 1022 10 16 N/A
3:30 pm 15:30 Sunny 72 22 52 11 50 50 ENE 8 13 30.18 1022 10 16 N/A
3:50 pm 15:50 Sunny 72 22 50 10 47 47 ENE 12 19 30.15 1021 10 16 N/A
4:11 pm 16:11 Sunny 70 21 50 10 50 50 NE 10 17 30.15 1021 10 16 N/A
4:30 pm 16:30 Sunny 72 22 50 10 47 47 NE 12 19 30.15 1021 10 16 N/A
4:50 pm 16:50 Sunny 72 22 52 11 50 50 NE 13 20 30.09 1019 10 16 N/A
5:11 pm 17:11 Sunny 70 21 50 10 50 50 NNE 10 17 30.12 1020 10 16 N/A
5:30 pm 17:30 Sunny 70 21 52 11 53 53 NE 10 17 30.12 1020 10 16 N/A
5:50 pm 17:50 Sunny 70 21 52 11 53 53 NNE 12 19 30.12 1020 10 16 N/A
6:11 pm 18:11 Sunny 70 21 52 11 53 53 NNE 10 17 30.12 1020 10 16 N/A
6:30 pm 18:30 Sunny 68 20 52 11 56 56 NE 9 15 30.12 1020 10 16 N/A
6:50 pm 18:50 Sunny 68 20 54 12 60 60 NNE 7 11 30.12 1020 10 16 N/A
7:11 pm 19:11 Sunny 66 19 54 12 64 64 NNE 7 11 30.12 1020 10 16 N/A
7:30 pm 19:30 Sunny 64 18 55 13 73 73 NE 5 7 30.12 1020 10 16 N/A
7:50 pm 19:50 Sunny 63 17 55 13 77 77 NE 6 9 30.12 1020 10 16 N/A
8:11 pm 20:11 Clear 61 16 54 12 77 77 NE 3 6 30.09 1019 10 16 N/A
8:30 pm 20:30 Clear 59 15 54 12 82 82 NNE 5 7 30.09 1019 10 16 N/A
8:50 pm 20:50 Clear 59 15 54 12 82 82 NE 3 6 30.09 1019 10 16 N/A
9:11 pm 21:11 Clear 59 15 54 12 82 82 NNE 6 9 30.09 1019 10 16 N/A
9:30 pm 21:30 Clear 59 15 54 12 82 82 NE 5 7 30.09 1019 10 16 N/A
9:50 pm 21:50 Clear 57 14 54 12 88 88 NE 6 9 30.09 1019 10 16 N/A
10:10 pm 22:10 Clear 55 13 54 12 94 94 ENE 3 6 30.09 1019 10 16 N/A
10:30 pm 22:30 Clear 55 13 54 12 94 94 NE 5 7 30.09 1019 10 16 N/A
10:50 pm 22:50 Clear 57 14 54 12 88 88 NE 5 7 30.09 1019 10 16 N/A
11:10 pm 23:10 Clear 57 14 54 12 88 88 NE 6 9 30.06 1018 10 16 N/A
11:30 pm 23:30 Clear 54 12 52 11 94 94 NE 5 7 30.09 1019 10 16 N/A
11:51 pm 23:51 Clear 55 13 52 11 88 88 NE 3 6 30.06 1018 10 16 N/A

Powered by AerisWeather